Location: *
(37.9500°N, 27.3666°E)
Time: 16:04:20
(UTC+00:00)

Cosmos 1300 - Pass Details

Date: 24 October 2021
Orbit: 509 x 512 km, 82.5° (Epoch: 07 December)

Event Time Altitude Azimuth Distance (km) Brightness Sun altitude
Rises 16:15:35 0° 189° (S) 2,609 6.5 -11.4°
Reaches altitude 10° 16:17:42 10° 190° (S) 1,727 5.6 -11.8°
Maximum altitude 16:21:30 78° 277° (W) 528 2.8 -12.6°
Drops below altitude 10° 16:25:19 10° 4° (N) 1,741 5.3 -13.3°
Sets 16:27:27 0° 6° (N) 2,631 6.2 -13.7°
